Regional Weather Roundup
Issued by NWS

Home | Current Version | Previous Version | Text Only | Print | Product List | Glossary On
Versions: 1 2 3 4 5 6 7 8 9 10 11 12 13 14 15 16 17 18 19 20 21 22 23 24 25 26 27 28 29 30 31 32 33 34 35 36 37 38 39 40 41 42 43 44 45 46 47 48 49 50
000
ASUS44 KEWX 090111
RWRTX
SOUTH TEXAS REGIONAL WEATHER ROUNDUP
NATIONAL WEATHER SERVICE AUSTIN/SAN ANTONIO TX
700 PM CST THU DEC 08 2016

NOTE: "FAIR" INDICATED FEW OR NO CLOUDS BELOW 12,000 FEET WITH NO
SIGNIFICANT WEATHER AND/OR OBSTRUCTIONS TO VISIBILITY.

* - THESE STATIONS ARE NOT NWS OR FAA STATIONS...AND ARE NOT SUBJECT
    TO NWS AND FAA QUALITY CONTROL.

TXZ171-172-183>190-090200-
TEXAS HILL COUNTRY AND EDWARDS PLATEAU

CITY           SKY/WX    TMP DP  RH WIND       PRES   REMARKS
JUNCTION       CLOUDY    33  23  66 N12       30.59R WCI  24
*LLANO         CLOUDY   N/A N/A N/A N10       30.65R
BURNET         CLOUDY    34  21  59 N13G18    30.61R WCI  25
*HORSESHOE BAY CLOUDY    36  25  63 N8G16     30.61R WCI  30
*KERRVILLE     CLOUDY    35  25  68 N12G17    30.56R WCI  26
*FREDERICKSBRG CLOUDY    33  22  64 N13       30.57R WCI  24
*ROCKSPRINGS   CLOUDY    32  27  80 NE9       30.56R WCI  24
*BOERNE STAGE  CLOUDY    34  23  64 N9G18     30.57R WCI  26
HONDO          CLOUDY    42  26  53 NE15      30.57R WCI  34
*UVALDE        CLOUDY    40  28  61 N13       30.58R WCI  33
DEL RIO        CLOUDY    41  27  57 N9        30.59R WCI  35
LAUGHLIN AFB   PTCLDY    41  33  75 N13       30.59R WCI  34
CARRIZO SPRGS  CLOUDY    45  32  61 N12       30.56R WCI  39
*EAGLE PASS    CLOUDY    43  28  56 VRB7G14   30.58R WCI  39
$$

TXZ173-191>194-202-209-217>225-228-090200-
CENTRAL AND SOUTH CENTRAL TEXAS

CITY           SKY/WX    TMP DP  RH WIND       PRES   REMARKS
GEORGETOWN     CLOUDY    36  19  51 N13       30.61  WCI  27
AUSTIN/BERGSTM CLOUDY    39  23  52 N17       30.60R WCI  30
AUSTIN/MABRY   CLOUDY    38  23  55 N8G18     30.61R WCI  32
*AUSTIN/EXEC   CLOUDY    37  25  60 N20       30.61R WCI  27
*LAGO VISTA    CLOUDY    36  23  60 N9G18     30.58R WCI  29
SAN MARCOS     CLOUDY    37  25  60 N20       30.59R WCI  27
NEW BRAUNFELS  CLOUDY    40  24  53 N20G26    30.56R WCI  30
RANDOLPH AFB   CLOUDY    40  24  54 N16       30.56R WCI  31
PT SAN ANTONIO CLOUDY    41  24  51 N14       30.54R WCI  33
SAN ANTONIO    CLOUDY    40  23  50 N13       30.57R WCI  32
STINSON FIELD  CLOUDY    42  24  49 N13G22    30.56R WCI  35
*PLEASANTON    CLOUDY    42  28  56 N8G17     30.57R WCI  38
*LA GRANGE     CLOUDY    41  27  58 N10G17    30.56R WCI  35
*GIDDINGS      CLOUDY    38  24  58 N8G18     30.62R WCI  32
*GONZALES      CLOUDY    41  27  57 N15G22    30.56R WCI  33
$$

TXZ163>164-176>182-195>201-210>213-226-227-235-090200-
SOUTHEAST TEXAS

CITY           SKY/WX    TMP DP  RH WIND       PRES   REMARKS
COLLEGE STN    CLOUDY    39  26  59 N16       30.57R WCI  30
*BRYAN         CLOUDY    38  25  59 N13G18    30.59R WCI  30
*CALDWELL      NOT AVBL
*CROCKETT      CLOUDY    37  27  65 N7        30.60R WCI  32
*BRENHAM       CLOUDY    42  28  59 N12G18    30.57R WCI  35
HUNTSVILLE     CLOUDY    40  30  67 N6        30.55R WCI  36
CONROE         CLOUDY    41  32  70 N9        30.53R WCI  35
HOUSTON BUSH   CLOUDY    44  33  65 N16G24    30.51R WCI  37
HOUSTON HOBBY  CLOUDY    45  32  60 N18G28    30.48R WCI  37
*HOUSTON SW AP CLOUDY    44  32  63 N13G20    30.52R WCI  38
PEARLAND       CLOUDY    47  32  56 N14G23    30.51R WCI  41
HOUSTON HOOKS  CLOUDY    43  32  65 N12G22    30.53R WCI  37
ELLINGTON FLD  CLOUDY    45  34  65 N16       30.49R WCI  37
SUGAR LAND     CLOUDY    45  33  63 N17       30.51R WCI  38
*HOUSTON EXEC    N/A     41  32  70 N20       30.54R WCI  32
*CLEVELAND MUN CLOUDY    42  35  75 N8G16     30.52R WCI  37
*WHARTON       DRIZZLE   43  34  72 N14G28    30.51R WCI  36
*COLUMBUS      CLOUDY    41  28  60 N14G20    30.55R WCI  33
*EAGLE LAKE    CLOUDY    44  34  67 N17G23    30.53R WCI  36
$$

TXZ214>216-236>238-090200-
THE UPPER TEXAS COAST

CITY           SKY/WX    TMP DP  RH WIND       PRES   REMARKS
*ORANGE        CLOUDY    45  30  55 N10G21    30.49R WCI  39
PORT ARTHUR    CLOUDY    45  33  63 N20G28    30.46R WCI  37
GALVESTON      CLOUDY    48  37  65 N25G35    30.48R WCI  40
ANGLETON       CLOUDY    46  34  62 N20       30.48R WCI  38
*BAY CITY      CLOUDY    46  35  65 N15G22    30.48R WCI  40
PALACIOS       CLOUDY    44  37  76 N22       30.48R WCI  35
$$

TXZ229>234-239>247-090200-
TEXAS COASTAL BEND AND RIO GRANDE PLAINS

CITY           SKY/WX    TMP DP  RH WIND       PRES   REMARKS
VICTORIA       CLOUDY    43  34  70 N15G23    30.51R WCI  36
*BEEVILLE      DRIZZLE   42  36  78 N15G25    30.52R WCI  34
ROCKPORT         N/A    N/A N/A N/A MISG      30.48R
*PORT ARANSAS  CLOUDY    45  39  81 N21G26    30.48R WCI  37
*PORT LAVACA   CLOUDY    45  37  76 N20G26    30.49R WCI  37
*INGLESIDE     LGT RAIN  44  39  81 N24G30    30.48R WCI  35
CORPUS CHRISTI DRIZZLE   43  39  86 N23G30    30.49R WCI  34
CORPUS NAS     CLOUDY    42  39  89 N29       30.48R WCI  31
*ROBSTOWN      DRIZZLE   43  39  88 N21G26    30.50R WCI  34
ALICE            N/A    N/A N/A N/A MISG      30.50R
KINGSVILLE NAS CLOUDY    43  41  93 N17G28    30.50R WCI  35
COTULLA        CLOUDY    47  29  49 N13       30.56R WCI  41
*FAITH RANCH   CLOUDY    45  34  65 NW7       30.56R WCI  41
LAREDO         CLOUDY    45  34  65 N13       30.55R WCI  39
$$

TXZ248>255-090200-
DEEP SOUTH TEXAS

CITY           SKY/WX    TMP DP  RH WIND       PRES   REMARKS
BROWNSVILLE    LGT RAIN  45  43  93 NW24G31   30.41R FOG     WCI  36
PORT ISABEL    LGT RAIN  45  44  97 N25G36    30.40R FOG     WCI  36
*SOUTH PADRE     N/A     48  48 100 N21G37    30.39R VSB 1   WCI  41
HARLINGEN      LGT RAIN  45  43  93 N22G35    30.44R WCI  37
*HEBBRONVILLE  CLOUDY    42  36  80 N14       30.51R WCI  34
MCALLEN        CLOUDY    46  40  79 N21G32    30.49R WCI  38
*WESLACO       CLOUDY    44  40  88 N20G30    30.46R WCI  35
FALFURRIAS     CLOUDY    43  38  84 N12G22    30.50R WCI  37
EDINBURG       DRIZZLE   45  41  86 N16G23    30.49R WCI  38
*ZAPATA        CLOUDY    45  37  73 N12G17    30.53R WCI  39
$$

TXZ213>215-236>238-242>244-246-247-251-254-255-090200-
CMAN STATIONS

STATION/POSITION TIME  TEMP    WIND        PRES    WAVE
                       AIR SEA DIR/SP/G            HT/PER
                 (UTC) (F)     (DEG/KT/KT) (MB)    (FT/S)
SABINE PASS      0042   47 59   20/ 23/ 31 1032.2
SEA RIM ST PARK  0000   47      20/ 20/ 24 1030.6
NORTH JETTY/GLS  0048   47 58   10/ 24/ 32   N/A
EAGLE POINT      0048   46 57   30/ 15/ 26 1032.1
MORGANS POINT    0048   45 59  360/ 14/ 17 1032.5
PORT O`CONNOR    0048   47     350/ 25/ 31 1031.3
PORT ARANSAS     0000   46 62  350/ 21/ 25 1030.4
MALAQUITE BEACH  0048   46 62  340/ 23/ 28 1032.3
BAFFIN BAY       0048   45 58  330/ 17/ 21 1032.0
PORT ISABEL      0048   49 68  350/ 25/ 34 1027.8
$$

GMZ080-GMZ150>470-090200-
OFFSHORE BUOY REPORTS

STATION/POSITION TIME  TEMP    WIND        PRES    WAVE
                       AIR SEA DIR/SP/G            HT/PER
                 (UTC) (F)     (DEG/KT/KT) (MB)    (FT/S)
20 E GALVESTON   0050   50 65   10/ 23/ 29 1030.4    6/ 6
90 E PT ARANSAS  0050   58 76   10/ 29/ 35 1027.2   12/ 9
35 NE PT MANSFLD 0050   57 76  360/ 29/ 35 1027.5   13/10
200 E PT ISABEL  0050   72 77   40/ 29/ 37 1020.0   13/ 7
$$



USA.gov is the U.S. government's official web portal to all federal, state and local government web resources and services.